DL4NBA-1 Weather Reports


Display with metric or nautical units.
time (UTC)temp
F
wind
direction
speed
MPH
gust
MPH
rain 1hr
in
rain 24hr
in
rain mn
in
humidity
%
barometer
mb
20260901055527 58 163 2.0 2.0 0.00 0.00 0.00
20260901055026 57 207 3.0 3.0 0.00 0.00 0.00
20260901054527 57 170 2.0 0.0 0.00 0.00 0.00
20260901054029 57 200 2.0 3.0 0.00 0.00 0.00
20260901053530 56 232 3.0 4.0 0.00 0.00 0.00
20260901053032 56 210 3.0 3.0 0.00 0.00 0.00
20260901052032 55 212 2.0 3.0 0.00 0.00 0.00
20260901051534 55 221 2.0 2.0 0.00 0.00 0.00
20260901051035 55 212 2.0 2.0 0.00 0.00 0.00
20260901050034 54 198 3.0 2.0 0.00 0.00 0.00
20260901045535 54 195 3.0 3.0 0.00 0.00 0.00
20260901045037 54 190 3.0 3.0 0.00 0.00 0.00
20260901044538 54 169 3.0 2.0 0.00 0.00 0.00
20260901043040 54 194 2.0 3.0 0.00 0.00 0.00
20260901041544 54 184 2.0 3.0 0.00 0.00 0.00
20260901040543 55 155 1.0 1.0 0.00 0.00 0.00
20260901040045 55 153 1.0 1.0 0.00 0.00 0.00
20260901035547 55 181 2.0 2.0 0.00 0.00 0.00
20260901034547 55 131 1.0 2.0 0.00 0.00 0.00
20260901032050 55 201 2.0 1.0 0.00 0.00 0.00
20260901031552 55 166 2.0 2.0 0.00 0.00 0.00
20260901031053 55 163 0.0 0.0 0.00 0.00 0.00
20260901030555 55 190 2.0 1.0 0.00 0.00 0.00
20260901025554 55 218 0.0 2.0 0.00 0.00 0.00
20260901025055 55 191 3.0 1.0 0.00 0.00 0.00
20260901024557 55 222 1.0 3.0 0.00 0.00 0.00
20260901024058 56 210 3.0 5.0 0.00 0.00 0.00
20260901023559 56 162 4.0 3.0 0.00 0.00 0.00
20260901023058 56 179 5.0 4.0 0.00 0.00 0.00
20260901022600 56 177 4.0 2.0 0.00 0.00 0.00
20260901022101 56 214 2.0 5.0 0.00 0.00 0.00
20260901021602 56 228 3.0 3.0 0.00 0.00 0.00
20260901021104 57 257 4.0 2.0 0.00 0.00 0.00
20260901020600 57 246 5.0 3.0 0.00 0.00 0.00
20260901015603 57 238 3.0 3.0 0.00 0.00 0.00
20260901015105 57 221 5.0 3.0 0.00 0.00 0.00
20260901014606 57 180 4.0 2.0 0.00 0.00 0.00
20260901014104 57 218 3.0 3.0 0.00 0.00 0.00
20260901013605 57 246 2.0 3.0 0.00 0.00 0.00
20260901013107 57 245 4.0 5.0 0.00 0.00 0.00
20260901012608 57 201 3.0 5.0 0.00 0.00 0.00
20260901012109 58 221 4.0 5.0 0.00 0.00 0.00
20260901011607 58 207 4.0 3.0 0.00 0.00 0.00
20260901010112 58 235 4.0 4.0 0.00 0.00 0.00
20260901005111 58 190 2.0 3.0 0.00 0.00 0.00
20260901004612 58 150 2.0 2.0 0.00 0.00 0.00
20260901003615 59 215 3.0 4.0 0.00 0.00 0.00
20260901003117 58 163 4.0 3.0 0.00 0.00 0.00
20260901002614 59 219 4.0 7.0 0.00 0.00 0.00
20260901002116 59 195 4.0 3.0 0.00 0.00 0.00
20260901001617 59 194 2.0 5.0 0.00 0.00 0.00
20260901001119 59 224 3.0 1.0 0.00 0.00 0.00
20260901000620 59 200 3.0 2.0 0.00 0.00 0.00
20260901000119 59 173 3.0 2.0 0.00 0.00 0.00
20260831235621 59 205 2.0 4.0 0.00 0.00 0.00
20260831235122 59 214 3.0 2.0 0.00 0.00 0.00
20260831234125 59 165 3.0 2.0 0.00 0.00 0.00
20260831233126 59 181 4.0 2.0 0.00 0.00 0.00
20260831232627 59 169 3.0 2.0 0.00 0.00 0.00
20260831232129 59 180 4.0 2.0 0.00 0.00 0.00
20260831231630 59 143 3.0 1.0 0.00 0.00 0.00
20260831231128 59 180 2.0 4.0 0.00 0.00 0.00
20260831230630 59 193 2.0 2.0 0.00 0.00 0.00
20260831225633 59 152 4.0 3.0 0.00 0.00 0.00
20260831225134 59 191 5.0 4.0 0.00 0.00 0.00
20260831224632 59 193 4.0 3.0 0.00 0.00 0.00
20260831224133 59 208 6.0 5.0 0.00 0.00 0.00
20260831223635 59 257 5.0 8.0 0.00 0.00 0.00
20260831223137 59 226 5.0 4.0 0.00 0.00 0.00
20260831222136 59 187 3.0 2.0 0.00 0.00 0.00
20260831221637 59 228 2.0 4.0 0.00 0.00 0.00
20260831221139 59 197 5.0 7.0 0.00 0.00 0.00
20260831220142 59 201 7.0 5.0 0.00 0.00 0.00
20260831215142 59 190 5.0 5.0 0.00 0.00 0.00
20260831214145 60 200 4.0 6.0 0.00 0.00 0.00
20260831213646 60 201 5.0 2.0 0.00 0.00 0.00
20260831213144 60 243 3.0 2.0 0.00 0.00 0.00
20260831212147 60 167 4.0 3.0 0.00 0.00 0.00
20260831211648 60 214 5.0 2.0 0.00 0.00 0.00
20260831211150 61 240 7.0 4.0 0.00 0.00 0.00
20260831210150 61 198 7.0 8.0 0.00 0.00 0.00
20260831205651 61 228 8.0 9.0 0.00 0.00 0.00
20260831204654 61 203 6.0 5.0 0.00 0.00 0.00
20260831203654 62 238 5.0 13.0 0.00 0.00 0.00
20260831202657 62 210 5.0 3.0 0.00 0.00 0.00
20260831202159 62 210 5.0 3.0 0.00 0.00 0.00
20260831201657 62 218 4.0 2.0 0.00 0.00 0.00
20260831201158 61 224 5.0 4.0 0.00 0.00 0.00
20260831200659 62 246 5.0 6.0 0.00 0.00 0.00
20260831200201 61 219 5.0 6.0 0.00 0.00 0.00
20260831195702 62 222 5.0 6.0 0.00 0.00 0.00
20260831195200 62 194 4.0 1.0 0.00 0.00 0.00
20260831194701 62 190 4.0 8.0 0.00 0.00 0.00
20260831194203 62 232 7.0 8.0 0.00 0.00 0.00
20260831193704 62 210 6.0 8.0 0.00 0.00 0.00
20260831193206 62 256 8.0 4.0 0.00 0.00 0.00
20260831192703 62 197 6.0 5.0 0.00 0.00 0.00
20260831192205 62 228 7.0 8.0 0.00 0.00 0.00
20260831191706 63 198 9.0 7.0 0.00 0.00 0.00
20260831190709 62 219 7.0 12.0 0.00 0.00 0.00
20260831185709 63 226 8.0 11.0 0.00 0.00 0.00
20260831185211 63 217 8.0 6.0 0.00 0.00 0.00
20260831184712 63 203 8.0 7.0 0.00 0.00 0.00
20260831184214 63 197 7.0 6.0 0.00 0.00 0.00
20260831183712 63 186 6.0 6.0 0.00 0.00 0.00
20260831183214 63 228 8.0 6.0 0.00 0.00 0.00
20260831182407 63 222 6.0 7.0 0.00 0.00 0.00
20260831182217 63 222 6.0 7.0 0.00 0.00 0.00
20260831181718 64 229 8.0 7.0 0.00 0.00 0.00
20260831181214 63 156 9.0 7.0 0.00 0.00 0.00
20260831175717 64 228 8.0 11.0 0.00 0.00 0.00
20260831173717 68 212 11.0 7.0 0.00 0.00 0.00
20260831173218 69 221 8.0 11.0 0.00 0.00 0.00
20260831172217 70 273 14.0 10.0 0.00 0.00 0.00
20260831171718 70 243 9.0 8.0 0.00 0.00 0.00
20260831171217 69 222 8.0 11.0 0.00 0.00 0.00
20260831170717 68 229 15.0 10.0 0.00 0.00 0.00
20260831170218 70 208 8.0 14.0 0.00 0.00 0.00
20260831165217 70 233 4.0 6.0 0.00 0.00 0.00
20260831164719 70 179 6.0 3.0 0.00 0.00 0.00
20260831164220 70 222 8.0 7.0 0.00 0.00 0.00
20260831163721 70 232 8.0 10.0 0.00 0.00 0.00
20260831163219 70 198 6.0 5.0 0.00 0.00 0.00
20260831162719 70 225 5.0 6.0 0.00 0.00 0.00
20260831162220 71 222 5.0 6.0 0.00 0.00 0.00
20260831161223 71 217 6.0 10.0 0.00 0.00 0.00
20260831160720 72 255 7.0 10.0 0.00 0.00 0.00
20260831160221 72 271 7.0 8.0 0.00 0.00 0.00
20260831155722 73 248 6.0 7.0 0.00 0.00 0.00
20260831155224 74 217 8.0 7.0 0.00 0.00 0.00
20260831154725 74 250 8.0 6.0 0.00 0.00 0.00
20260831154222 73 180 10.0 7.0 0.00 0.00 0.00
20260831153224 73 215 9.0 9.0 0.00 0.00 0.00
20260831152725 74 226 11.0 7.0 0.00 0.00 0.00
20260831152226 74 225 6.0 9.0 0.00 0.00 0.00
20260831151723 75 231 8.0 10.0 0.00 0.00 0.00
20260831151224 75 253 6.0 3.0 0.00 0.00 0.00
20260831150725 75 211 5.0 14.0 0.00 0.00 0.00
20260831150226 74 240 9.0 5.0 0.00 0.00 0.00
20260831145226 74 229 10.0 11.0 0.00 0.00 0.00
20260831144727 74 239 9.0 5.0 0.00 0.00 0.00
20260831144228 75 264 10.0 9.0 0.00 0.00 0.00
20260831143729 75 219 13.0 8.0 0.00 0.00 0.00
20260831143230 75 218 8.0 9.0 0.00 0.00 0.00
20260831142728 76 218 11.0 11.0 0.00 0.00 0.00
20260831141730 76 256 11.0 9.0 0.00 0.00 0.00
20260831141231 76 212 9.0 5.0 0.00 0.00 0.00
20260831140732 75 155 13.0 6.0 0.00 0.00 0.00
20260831134734 75 235 14.0 17.0 0.00 0.00 0.00
20260831134235 76 174 12.0 10.0 0.00 0.00 0.00
20260831133733 77 249 10.0 8.0 0.00 0.00 0.00
20260831133234 76 197 14.0 14.0 0.00 0.00 0.00
20260831132735 75 226 9.0 8.0 0.00 0.00 0.00
20260831132237 74 273 13.0 19.0 0.00 0.00 0.00
20260831131738 75 195 9.0 10.0 0.00 0.00 0.00
20260831131235 74 219 10.0 8.0 0.00 0.00 0.00
20260831130736 75 204 10.0 6.0 0.00 0.00 0.00
20260831125240 74 184 13.0 10.0 0.00 0.00 0.00
20260831124239 74 260 12.0 9.0 0.00 0.00 0.00
20260831123741 74 233 10.0 12.0 0.00 0.00 0.00
20260831122743 74 181 10.0 10.0 0.00 0.00 0.00
20260831121743 74 263 9.0 5.0 0.00 0.00 0.00
20260831121244 73 211 10.0 14.0 0.00 0.00 0.00
20260831120247 75 233 10.0 12.0 0.00 0.00 0.00
20260831115247 73 218 10.0 14.0 0.00 0.00 0.00
20260831114906 72 210 8.0 9.0 0.00 0.00 0.00
20260831114748 72 210 8.0 9.0 0.00 0.00 0.00
20260831114249 72 221 9.0 8.0 0.00 0.00 0.00
20260831113248 74 214 11.0 12.0 0.00 0.00 0.00
20260831112250 72 246 12.0 13.0 0.00 0.00 0.00
20260831111752 71 236 11.0 12.0 0.00 0.00 0.00
20260831111253 74 232 8.0 6.0 0.00 0.00 0.00
20260831110751 72 181 8.0 8.0 0.00 0.00 0.00
20260831110252 71 249 8.0 10.0 0.00 0.00 0.00
20260831105253 70 226 7.0 8.0 0.00 0.00 0.00
20260831104754 71 208 9.0 8.0 0.00 0.00 0.00
20260831103754 71 238 9.0 7.0 0.00 0.00 0.00
20260831103256 70 264 9.0 9.0 0.00 0.00 0.00
20260831102258 71 204 7.0 8.0 0.00 0.00 0.00
20260831101756 71 232 11.0 12.0 0.00 0.00 0.00
20260831101257 70 217 14.0 12.0 0.00 0.00 0.00
20260831100759 70 238 7.0 7.0 0.00 0.00 0.00
20260831095801 71 274 8.0 10.0 0.00 0.00 0.00
20260831095259 69 217 10.0 9.0 0.00 0.00 0.00
20260831094302 70 276 9.0 11.0 0.00 0.00 0.00
20260831093803 70 256 11.0 10.0 0.00 0.00 0.00
20260831093304 71 257 9.0 12.0 0.00 0.00 0.00
20260831092306 70 240 7.0 11.0 0.00 0.00 0.00
20260831091806 71 232 6.0 8.0 0.00 0.00 0.00
20260831090808 69 212 9.0 7.0 0.00 0.00 0.00
20260831090306 68 215 9.0 10.0 0.00 0.00 0.00
20260831085807 68 226 11.0 9.0 0.00 0.00 0.00
20260831085308 68 249 12.0 8.0 0.00 0.00 0.00
20260831084810 68 222 9.0 9.0 0.00 0.00 0.00
20260831083809 66 256 8.0 12.0 0.00 0.00 0.00
20260831082811 66 236 10.0 10.0 0.00 0.00 0.00
20260831082313 67 246 7.0 9.0 0.00 0.00 0.00
20260831081814 68 222 7.0 4.0 0.00 0.00 0.00
20260831081313 67 218 9.0 8.0 0.00 0.00 0.00
20260831080814 64 233 10.0 7.0 0.00 0.00 0.00
20260831080316 64 229 5.0 6.0 0.00 0.00 0.00
20260831075817 64 228 6.0 8.0 0.00 0.00 0.00
20260831074817 64 210 6.0 9.0 0.00 0.00 0.00
20260831074318 65 236 7.0 6.0 0.00 0.00 0.00
20260831072822 65 221 6.0 4.0 0.00 0.00 0.00
20260831071324 65 170 10.0 8.0 0.00 0.00 0.00
20260831070825 65 243 7.0 6.0 0.00 0.00 0.00
20260831070327 64 210 10.0 8.0 0.00 0.00 0.00
20260831065326 64 212 8.0 12.0 0.00 0.00 0.00
20260831064827 63 233 13.0 9.0 0.00 0.00 0.00
20260831064328 62 243 5.0 9.0 0.00 0.00 0.00
20260831063830 63 235 7.0 9.0 0.00 0.00 0.00
20260831063327 62 225 6.0 9.0 0.00 0.00 0.00
20260831062330 62 201 6.0 5.0 0.00 0.00 0.00
20260831061831 62 207 6.0 8.0 0.00 0.00 0.00
20260831060830 62 208 5.0 5.0 0.00 0.00 0.00
20260831060332 62 208 8.0 8.0 0.00 0.00 0.00